Time,TemperatureF,DewpointF,PressureIn,WindDirection,WindDirectionDegrees,WindSpeedMPH,WindSpeedGustMPH,Humidity,HourlyPrecipIn,Conditions,Clouds,dailyrainin,SoftwareType,DateUTC
2013-04-24 00:02:00,19.0,14.2,30.32,SW,226,1.0,4.0,81,0.00,,,0.00,meteohub,2013-04-24 06:02:00,
2013-04-24 00:07:00,19.6,13.8,30.33,WSW,250,1.0,4.0,78,0.00,,,0.00,meteohub,2013-04-24 06:07:00,
2013-04-24 00:12:00,20.3,12.7,30.33,WNW,285,2.0,4.0,72,0.00,,,0.00,meteohub,2013-04-24 06:12:00,
2013-04-24 00:17:00,21.0,12.2,30.32,NW,309,1.0,4.0,68,0.00,,,0.00,meteohub,2013-04-24 06:17:00,
2013-04-24 00:22:00,21.2,11.7,30.32,NNW,333,3.0,4.0,66,0.00,,,0.00,meteohub,2013-04-24 06:22:00,
2013-04-24 00:27:00,21.0,10.8,30.32,NNW,342,3.0,6.0,64,0.00,,,0.00,meteohub,2013-04-24 06:27:00,
2013-04-24 00:32:00,21.4,10.8,30.33,WNW,303,1.0,6.0,63,0.00,,,0.00,meteohub,2013-04-24 06:32:00,
2013-04-24 00:37:00,21.2,10.6,30.33,WNW,290,2.0,6.0,63,0.00,,,0.00,meteohub,2013-04-24 06:37:00,
2013-04-24 00:42:00,20.8,10.6,30.32,NNW,330,3.0,4.0,64,0.00,,,0.00,meteohub,2013-04-24 06:42:00,
2013-04-24 00:47:00,20.8,10.2,30.33,NW,318,1.0,4.0,63,0.00,,,0.00,meteohub,2013-04-24 06:47:00,
2013-04-24 00:52:00,20.7,10.4,30.33,NW,318,1.0,4.0,64,0.00,,,0.00,meteohub,2013-04-24 06:52:00,
2013-04-24 00:57:00,20.3,10.8,30.33,WSW,251,2.0,4.0,66,0.00,,,0.00,meteohub,2013-04-24 06:57:00,
2013-04-24 01:02:00,20.1,10.9,30.33,NW,308,0.0,4.0,67,0.00,,,0.00,meteohub,2013-04-24 07:02:00,
2013-04-24 01:07:00,20.1,10.9,30.33,West,281,1.0,4.0,67,0.00,,,0.00,meteohub,2013-04-24 07:07:00,
2013-04-24 01:12:00,20.5,11.7,30.33,WSW,243,1.0,4.0,68,0.00,,,0.00,meteohub,2013-04-24 07:12:00,
2013-04-24 01:17:00,20.8,11.7,30.33,WNW,300,1.0,3.0,67,0.00,,,0.00,meteohub,2013-04-24 07:17:00,
2013-04-24 01:22:00,19.9,11.1,30.33,SW,217,3.0,4.0,68,0.00,,,0.00,meteohub,2013-04-24 07:22:00,
2013-04-24 01:27:00,18.9,11.3,30.33,SSW,206,3.0,6.0,72,0.00,,,0.00,meteohub,2013-04-24 07:27:00,
2013-04-24 01:32:00,18.5,11.8,30.33,SSW,212,1.0,6.0,75,0.00,,,0.00,meteohub,2013-04-24 07:32:00,
2013-04-24 01:37:00,18.0,12.2,30.33,South,169,5.0,6.0,78,0.00,,,0.00,meteohub,2013-04-24 07:37:00,
2013-04-24 01:42:00,17.8,12.9,30.33,SSW,200,4.0,9.0,81,0.00,,,0.00,meteohub,2013-04-24 07:42:00,
2013-04-24 01:47:00,17.6,12.7,30.33,South,177,7.0,9.0,81,0.00,,,0.00,meteohub,2013-04-24 07:47:00,
2013-04-24 01:52:00,17.2,12.7,30.33,SSE,157,6.0,9.0,82,0.00,,,0.00,meteohub,2013-04-24 07:52:00,
2013-04-24 01:57:00,16.9,12.6,30.33,South,174,4.0,9.0,83,0.00,,,0.00,meteohub,2013-04-24 07:57:00,
2013-04-24 02:02:00,16.5,12.6,30.32,West,276,0.0,9.0,84,0.00,,,0.00,meteohub,2013-04-24 08:02:00,
2013-04-24 02:07:00,16.5,12.7,30.33,SSW,201,4.0,9.0,85,0.00,,,0.00,meteohub,2013-04-24 08:07:00,
2013-04-24 02:12:00,16.5,13.1,30.33,SSW,207,6.0,12.0,86,0.00,,,0.00,meteohub,2013-04-24 08:12:00,
2013-04-24 02:17:00,16.5,13.1,30.32,SSW,205,2.0,12.0,86,0.00,,,0.00,meteohub,2013-04-24 08:17:00,
2013-04-24 02:22:00,16.5,13.3,30.32,SSW,201,4.0,12.0,87,0.00,,,0.00,meteohub,2013-04-24 08:22:00,
2013-04-24 02:27:00,16.7,13.5,30.32,SSE,159,4.0,9.0,87,0.00,,,0.00,meteohub,2013-04-24 08:27:00,
2013-04-24 02:32:00,16.9,13.6,30.32,SSE,158,4.0,9.0,87,0.00,,,0.00,meteohub,2013-04-24 08:32:00,
2013-04-24 02:37:00,17.1,13.8,30.31,South,171,4.0,8.0,87,0.00,,,0.00,meteohub,2013-04-24 08:37:00,
2013-04-24 02:42:00,17.1,13.6,30.31,South,176,2.0,8.0,86,0.00,,,0.00,meteohub,2013-04-24 08:42:00,
2013-04-24 02:47:00,17.1,13.1,30.31,SW,226,1.0,7.0,84,0.00,,,0.00,meteohub,2013-04-24 08:47:00,
2013-04-24 02:52:00,18.3,11.7,30.31,WNW,300,0.0,6.0,75,0.00,,,0.00,meteohub,2013-04-24 08:52:00,
2013-04-24 02:57:00,18.5,11.3,30.31,WSW,239,2.0,3.0,73,0.00,,,0.00,meteohub,2013-04-24 08:57:00,
2013-04-24 03:02:00,18.9,10.9,30.31,WSW,243,0.0,2.0,71,0.00,,,0.00,meteohub,2013-04-24 09:02:00,
2013-04-24 03:07:00,18.5,11.3,30.32,SE,139,0.0,2.0,73,0.00,,,0.00,meteohub,2013-04-24 09:07:00,
2013-04-24 03:12:00,18.0,10.8,30.32,WNW,293,0.0,2.0,73,0.00,,,0.00,meteohub,2013-04-24 09:12:00,
2013-04-24 03:17:00,18.1,10.0,30.32,NNW,328,2.0,2.0,70,0.00,,,0.00,meteohub,2013-04-24 09:17:00,
2013-04-24 03:22:00,18.1,10.4,30.32,NW,325,2.0,5.0,71,0.00,,,0.00,meteohub,2013-04-24 09:22:00,
2013-04-24 03:27:00,16.5,10.2,30.32,NW,326,4.0,5.0,76,0.00,,,0.00,meteohub,2013-04-24 09:27:00,
2013-04-24 03:32:00,16.2,10.2,30.32,NNW,333,3.0,5.0,77,0.00,,,0.00,meteohub,2013-04-24 09:32:00,
2013-04-24 03:37:00,15.6,10.0,30.31,NNW,337,4.0,4.0,78,0.00,,,0.00,meteohub,2013-04-24 09:37:00,
2013-04-24 03:42:00,15.8,10.4,30.31,NW,326,2.0,6.0,79,0.00,,,0.00,meteohub,2013-04-24 09:42:00,
2013-04-24 03:47:00,15.6,10.0,30.31,NNW,337,3.0,6.0,78,0.00,,,0.00,meteohub,2013-04-24 09:47:00,
2013-04-24 03:52:00,15.4,10.4,30.31,NNW,333,3.0,6.0,80,0.00,,,0.00,meteohub,2013-04-24 09:52:00,
2013-04-24 03:57:00,15.6,10.8,30.30,NNW,333,8.0,8.0,81,0.00,,,0.00,meteohub,2013-04-24 09:57:00,
2013-04-24 04:02:00,16.0,11.5,30.30,NNW,330,7.0,9.0,82,0.00,,,0.00,meteohub,2013-04-24 10:02:00,
2013-04-24 04:07:00,16.2,12.7,30.31,NW,313,2.0,9.0,86,0.00,,,0.00,meteohub,2013-04-24 10:07:00,
2013-04-24 04:12:00,16.2,12.2,30.31,NW,322,3.0,9.0,84,0.00,,,0.00,meteohub,2013-04-24 10:12:00,
2013-04-24 04:17:00,16.2,12.4,30.31,NW,323,6.0,7.0,85,0.00,,,0.00,meteohub,2013-04-24 10:17:00,
2013-04-24 04:22:00,16.3,12.6,30.31,NW,323,6.0,8.0,85,0.00,,,0.00,meteohub,2013-04-24 10:22:00,
2013-04-24 04:27:00,16.5,11.5,30.31,NNW,340,6.0,8.0,80,0.00,,,0.00,meteohub,2013-04-24 10:27:00,
2013-04-24 04:32:00,17.1,10.6,30.32,NNW,335,4.0,8.0,75,0.00,,,0.00,meteohub,2013-04-24 10:32:00,
2013-04-24 04:37:00,17.1,10.2,30.32,NW,316,2.0,7.0,74,0.00,,,0.00,meteohub,2013-04-24 10:37:00,
2013-04-24 04:42:00,17.2,10.0,30.32,NNW,330,2.0,7.0,73,0.00,,,0.00,meteohub,2013-04-24 10:42:00,
2013-04-24 04:47:00,17.2,10.0,30.32,NW,325,2.0,5.0,73,0.00,,,0.00,meteohub,2013-04-24 10:47:00,
2013-04-24 04:52:00,17.2,9.9,30.32,NNW,330,5.0,6.0,72,0.00,,,0.00,meteohub,2013-04-24 10:52:00,
2013-04-24 04:57:00,17.4,9.9,30.32,NNE,20,5.0,8.0,72,0.00,,,0.00,meteohub,2013-04-24 10:57:00,
2013-04-24 05:02:00,17.4,10.2,30.32,NW,316,5.0,8.0,73,0.00,,,0.00,meteohub,2013-04-24 11:02:00,
2013-04-24 05:07:00,17.4,10.6,30.32,NNE,15,5.0,8.0,74,0.00,,,0.00,meteohub,2013-04-24 11:07:00,
2013-04-24 05:12:00,17.1,10.8,30.32,NNW,335,2.0,7.0,76,0.00,,,0.00,meteohub,2013-04-24 11:12:00,
2013-04-24 05:17:00,16.9,10.9,30.32,NNW,333,4.0,7.0,77,0.00,,,0.00,meteohub,2013-04-24 11:17:00,
2013-04-24 05:22:00,16.7,11.1,30.32,NW,321,5.0,7.0,78,0.00,,,0.00,meteohub,2013-04-24 11:22:00,
2013-04-24 05:27:00,16.5,11.5,30.32,NNW,328,2.0,8.0,80,0.00,,,0.00,meteohub,2013-04-24 11:27:00,
2013-04-24 05:32:00,16.5,11.5,30.32,NW,304,2.0,8.0,80,0.00,,,0.00,meteohub,2013-04-24 11:32:00,
2013-04-24 05:37:00,16.9,11.3,30.32,NW,326,3.0,8.0,78,0.00,,,0.00,meteohub,2013-04-24 11:37:00,
2013-04-24 05:42:00,17.1,11.1,30.32,NW,304,4.0,6.0,77,0.00,,,0.00,meteohub,2013-04-24 11:42:00,
2013-04-24 05:47:00,17.1,10.8,30.32,NNW,328,6.0,6.0,76,0.00,,,0.00,meteohub,2013-04-24 11:47:00,
2013-04-24 05:52:00,17.4,10.6,30.32,NW,316,5.0,7.0,74,0.00,,,0.00,meteohub,2013-04-24 11:52:00,
2013-04-24 05:57:00,17.2,10.8,30.32,NNW,328,0.0,7.0,75,0.00,,,0.00,meteohub,2013-04-24 11:57:00,
2013-04-24 06:02:00,17.1,10.6,30.32,NNW,328,3.0,7.0,75,0.00,,,0.00,meteohub,2013-04-24 12:02:00,
2013-04-24 06:07:00,17.4,10.6,30.33,NNW,335,3.0,6.0,74,0.00,,,0.00,meteohub,2013-04-24 12:07:00,
2013-04-24 06:12:00,17.6,10.0,30.33,NNW,332,4.0,5.0,72,0.00,,,0.00,meteohub,2013-04-24 12:12:00,
2013-04-24 06:17:00,17.8,10.2,30.33,NNW,328,1.0,5.0,72,0.00,,,0.00,meteohub,2013-04-24 12:17:00,
2013-04-24 06:22:00,17.8,9.0,30.33,NNW,333,2.0,5.0,68,0.00,,,0.00,meteohub,2013-04-24 12:22:00,
2013-04-24 06:27:00,17.8,8.6,30.33,NW,321,6.0,7.0,67,0.00,,,0.00,meteohub,2013-04-24 12:27:00,
2013-04-24 06:32:00,17.6,7.9,30.33,North,1,4.0,9.0,65,0.00,,,0.00,meteohub,2013-04-24 12:32:00,
2013-04-24 06:37:00,17.4,7.7,30.34,NNW,340,6.0,9.0,65,0.00,,,0.00,meteohub,2013-04-24 12:37:00,
2013-04-24 06:42:00,17.4,7.7,30.33,NNW,344,4.0,9.0,65,0.00,,,0.00,meteohub,2013-04-24 12:42:00,
2013-04-24 06:47:00,17.4,8.4,30.33,NW,325,4.0,9.0,67,0.00,,,0.00,meteohub,2013-04-24 12:47:00,
2013-04-24 06:52:00,17.4,8.4,30.34,NNW,333,5.0,9.0,67,0.00,,,0.00,meteohub,2013-04-24 12:52:00,
2013-04-24 06:57:00,17.4,8.4,30.34,NNW,332,3.0,8.0,67,0.00,,,0.00,meteohub,2013-04-24 12:57:00,
2013-04-24 07:02:00,17.6,8.8,30.35,NNE,33,0.0,6.0,68,0.00,,,0.00,meteohub,2013-04-24 13:02:00,
2013-04-24 07:07:00,17.8,8.6,30.35,NW,326,1.0,6.0,67,0.00,,,0.00,meteohub,2013-04-24 13:07:00,
2013-04-24 07:12:00,17.8,9.0,30.35,North,8,2.0,5.0,68,0.00,,,0.00,meteohub,2013-04-24 13:12:00,
2013-04-24 07:17:00,18.0,9.9,30.35,NNW,337,3.0,4.0,70,0.00,,,0.00,meteohub,2013-04-24 13:17:00,
2013-04-24 07:22:00,18.1,10.6,30.35,NW,323,1.0,4.0,72,0.00,,,0.00,meteohub,2013-04-24 13:22:00,
2013-04-24 07:27:00,18.5,11.3,30.35,West,281,1.0,4.0,73,0.00,,,0.00,meteohub,2013-04-24 13:27:00,
2013-04-24 07:32:00,19.0,11.8,30.35,NW,313,1.0,4.0,73,0.00,,,0.00,meteohub,2013-04-24 13:32:00,
2013-04-24 07:37:00,19.8,11.8,30.35,NNW,333,4.0,4.0,71,0.00,,,0.00,meteohub,2013-04-24 13:37:00,
2013-04-24 07:42:00,20.5,10.9,30.35,NNW,335,3.0,4.0,66,0.00,,,0.00,meteohub,2013-04-24 13:42:00,
2013-04-24 07:47:00,21.2,10.6,30.35,NW,319,2.0,5.0,63,0.00,,,0.00,meteohub,2013-04-24 13:47:00,
2013-04-24 07:52:00,21.9,10.6,30.35,NNW,347,6.0,8.0,61,0.00,,,0.00,meteohub,2013-04-24 13:52:00,
2013-04-24 07:57:00,22.3,10.2,30.35,WNW,298,6.0,12.0,59,0.00,,,0.00,meteohub,2013-04-24 13:57:00,
2013-04-24 08:02:00,22.6,9.7,30.35,NNW,332,9.0,12.0,57,0.00,,,0.00,meteohub,2013-04-24 14:02:00,
2013-04-24 08:07:00,23.2,10.6,30.35,NW,326,9.0,14.0,58,0.00,,,0.00,meteohub,2013-04-24 14:07:00,
2013-04-24 08:12:00,23.4,11.1,30.35,NW,317,10.0,14.0,59,0.00,,,0.00,meteohub,2013-04-24 14:12:00,
2013-04-24 08:22:00,23.7,9.5,30.35,NNW,346,6.0,13.0,54,0.00,,,0.00,meteohub,2013-04-24 14:22:00,
2013-04-24 08:27:00,23.7,9.5,30.35,NNW,328,9.0,13.0,54,0.00,,,0.00,meteohub,2013-04-24 14:27:00,
2013-04-24 08:34:00,24.1,10.2,30.35,North,353,7.0,14.0,55,0.00,,,0.00,meteohub,2013-04-24 14:34:00,
2013-04-24 08:39:00,24.6,10.4,30.35,NNW,332,6.0,14.0,54,0.00,,,0.00,meteohub,2013-04-24 14:39:00,
2013-04-24 08:44:00,24.8,9.7,30.35,NW,313,4.0,14.0,52,0.00,,,0.00,meteohub,2013-04-24 14:44:00,
2013-04-24 08:50:00,26.1,11.3,30.35,NW,315,2.0,10.0,53,0.00,,,0.00,meteohub,2013-04-24 14:50:00,
2013-04-24 08:56:00,26.4,9.9,30.35,NNE,21,5.0,8.0,49,0.00,,,0.00,meteohub,2013-04-24 14:56:00,
2013-04-24 09:01:00,26.8,9.7,30.35,NNW,342,5.0,8.0,48,0.00,,,0.00,meteohub,2013-04-24 15:01:00,
2013-04-24 09:09:00,27.0,11.3,30.35,NW,318,4.0,8.0,51,0.00,,,0.00,meteohub,2013-04-24 15:09:00,
2013-04-24 09:14:00,27.3,10.2,30.35,NNE,26,2.0,8.0,48,0.00,,,0.00,meteohub,2013-04-24 15:14:00,
2013-04-24 09:20:00,27.7,11.5,30.35,North,7,5.0,8.0,50,0.00,,,0.00,meteohub,2013-04-24 15:20:00,
2013-04-24 09:25:00,27.9,13.5,30.35,NNW,337,7.0,8.0,54,0.00,,,0.00,meteohub,2013-04-24 15:25:00,
2013-04-24 09:31:00,28.2,13.6,30.35,NE,35,4.0,8.0,54,0.00,,,0.00,meteohub,2013-04-24 15:31:00,
2013-04-24 09:36:00,28.4,13.1,30.35,North,11,7.0,8.0,52,0.00,,,0.00,meteohub,2013-04-24 15:36:00,
2013-04-24 09:42:00,28.8,12.9,30.35,NNW,329,3.0,8.0,51,0.00,,,0.00,meteohub,2013-04-24 15:42:00,
2013-04-24 09:47:00,29.5,12.7,30.35,NNE,23,3.0,8.0,49,0.00,,,0.00,meteohub,2013-04-24 15:47:00,
2013-04-24 09:52:00,30.0,12.2,30.35,NNE,13,2.0,8.0,47,0.00,,,0.00,meteohub,2013-04-24 15:52:00,
2013-04-24 09:57:00,30.7,9.9,30.35,North,359,3.0,7.0,41,0.00,,,0.00,meteohub,2013-04-24 15:57:00,
2013-04-24 10:02:00,31.3,9.1,30.35,NE,35,7.0,7.0,39,0.00,,,0.00,meteohub,2013-04-24 16:02:00,
2013-04-24 10:07:00,31.5,8.8,30.35,ENE,76,1.0,8.0,38,0.00,,,0.00,meteohub,2013-04-24 16:07:00,
2013-04-24 10:12:00,31.6,6.4,30.35,NNE,19,4.0,8.0,34,0.00,,,0.00,meteohub,2013-04-24 16:12:00,
2013-04-24 10:17:00,32.0,8.1,30.34,NW,321,3.0,9.0,36,0.00,,,0.00,meteohub,2013-04-24 16:17:00,
2013-04-24 10:22:00,32.5,9.1,30.34,NE,52,5.0,9.0,37,0.00,,,0.00,meteohub,2013-04-24 16:22:00,
2013-04-24 10:27:00,32.7,7.5,30.34,NNW,337,6.0,6.0,34,0.00,,,0.00,meteohub,2013-04-24 16:27:00,
2013-04-24 10:32:00,32.7,8.1,30.35,NNW,347,5.0,9.0,35,0.00,,,0.00,meteohub,2013-04-24 16:32:00,
2013-04-24 10:37:00,33.1,9.0,30.34,NNE,23,6.0,9.0,36,0.00,,,0.00,meteohub,2013-04-24 16:37:00,
2013-04-24 10:42:00,33.3,9.1,30.35,NNE,26,4.0,9.0,36,0.00,,,0.00,meteohub,2013-04-24 16:42:00,
2013-04-24 10:47:00,33.6,9.0,30.35,NE,37,1.0,9.0,35,0.00,,,0.00,meteohub,2013-04-24 16:47:00,
2013-04-24 10:52:00,34.3,9.5,30.35,NE,50,4.0,9.0,35,0.00,,,0.00,meteohub,2013-04-24 16:52:00,
2013-04-24 10:57:00,34.3,9.0,30.35,NNE,29,2.0,9.0,34,0.00,,,0.00,meteohub,2013-04-24 16:57:00,
2013-04-24 11:02:00,35.2,10.9,30.35,WSW,251,1.0,9.0,36,0.00,,,0.00,meteohub,2013-04-24 17:02:00,
2013-04-24 11:07:00,36.1,11.1,30.34,ESE,105,2.0,7.0,35,0.00,,,0.00,meteohub,2013-04-24 17:07:00,
2013-04-24 11:12:00,36.7,11.7,30.34,West,269,0.0,7.0,35,0.00,,,0.00,meteohub,2013-04-24 17:12:00,
2013-04-24 11:17:00,37.2,10.8,30.34,North,349,4.0,7.0,33,0.00,,,0.00,meteohub,2013-04-24 17:17:00,
2013-04-24 11:22:00,37.2,10.8,30.34,ENE,63,2.0,7.0,33,0.00,,,0.00,meteohub,2013-04-24 17:22:00,
2013-04-24 11:27:00,36.9,13.1,30.34,NNE,18,11.0,12.0,37,0.00,,,0.00,meteohub,2013-04-24 17:27:00,
2013-04-24 11:32:00,36.5,13.3,30.34,NNE,13,7.0,20.0,38,0.00,,,0.00,meteohub,2013-04-24 17:32:00,
2013-04-24 11:37:00,36.1,12.4,30.33,ENE,58,4.0,20.0,37,0.00,,,0.00,meteohub,2013-04-24 17:37:00,
2013-04-24 11:42:00,36.9,14.2,30.33,NNW,338,5.0,20.0,39,0.00,,,0.00,meteohub,2013-04-24 17:42:00,
2013-04-24 11:47:00,36.9,12.4,30.33,ENE,67,5.0,13.0,36,0.00,,,0.00,meteohub,2013-04-24 17:47:00,
2013-04-24 11:52:00,37.0,13.8,30.33,NE,53,1.0,12.0,38,0.00,,,0.00,meteohub,2013-04-24 17:52:00,
2013-04-24 11:57:00,37.8,12.6,30.33,West,277,0.0,12.0,35,0.00,,,0.00,meteohub,2013-04-24 17:57:00,
2013-04-24 12:02:00,38.3,13.6,30.32,SE,145,3.0,11.0,36,0.00,,,0.00,meteohub,2013-04-24 18:02:00,
2013-04-24 12:07:00,39.0,13.6,30.33,NW,324,3.0,9.0,35,0.00,,,0.00,meteohub,2013-04-24 18:07:00,
2013-04-24 12:12:00,39.7,13.6,30.32,ESE,121,10.0,10.0,34,0.00,,,0.00,meteohub,2013-04-24 18:12:00,
2013-04-24 12:17:00,39.4,13.3,30.32,SE,127,5.0,13.0,34,0.00,,,0.00,meteohub,2013-04-24 18:17:00,
2013-04-24 12:22:00,39.9,12.4,30.32,SSE,166,6.0,13.0,32,0.00,,,0.00,meteohub,2013-04-24 18:22:00,
2013-04-24 12:27:00,39.9,11.7,30.32,SSE,152,6.0,13.0,31,0.00,,,0.00,meteohub,2013-04-24 18:27:00,
2013-04-24 12:32:00,40.6,13.1,30.32,ESE,119,3.0,10.0,32,0.00,,,0.00,meteohub,2013-04-24 18:32:00,
2013-04-24 12:37:00,41.5,11.7,30.31,SE,139,0.0,10.0,29,0.00,,,0.00,meteohub,2013-04-24 18:37:00,
2013-04-24 12:42:00,41.5,13.1,30.31,South,169,1.0,8.0,31,0.00,,,0.00,meteohub,2013-04-24 18:42:00,
2013-04-24 12:47:00,41.5,11.7,30.31,East,96,6.0,8.0,29,0.00,,,0.00,meteohub,2013-04-24 18:47:00,
2013-04-24 12:52:00,41.2,10.6,30.31,ENE,63,6.0,7.0,28,0.00,,,0.00,meteohub,2013-04-24 18:52:00,
2013-04-24 12:57:00,41.0,10.4,30.30,ESE,123,5.0,8.0,28,0.00,,,0.00,meteohub,2013-04-24 18:57:00,
2013-04-24 13:02:00,42.1,12.0,30.31,West,270,4.0,8.0,29,0.00,,,0.00,meteohub,2013-04-24 19:02:00,
2013-04-24 13:07:00,42.1,11.3,30.31,WNW,283,2.0,9.0,28,0.00,,,0.00,meteohub,2013-04-24 19:07:00,
2013-04-24 13:12:00,41.7,8.4,30.31,NW,312,4.0,12.0,25,0.00,,,0.00,meteohub,2013-04-24 19:12:00,
2013-04-24 13:17:00,41.7,8.4,30.31,NNW,332,6.0,12.0,25,0.00,,,0.00,meteohub,2013-04-24 19:17:00,
2013-04-24 13:22:00,41.5,8.2,30.31,NW,323,17.0,17.0,25,0.00,,,0.00,meteohub,2013-04-24 19:22:00,
2013-04-24 13:27:00,41.7,7.5,30.30,NNW,333,13.0,18.0,24,0.00,,,0.00,meteohub,2013-04-24 19:27:00,
2013-04-24 13:32:00,41.9,8.6,30.31,NW,318,4.0,25.0,25,0.00,,,0.00,meteohub,2013-04-24 19:32:00,
2013-04-24 13:37:00,42.1,8.8,30.30,NW,326,4.0,25.0,25,0.00,,,0.00,meteohub,2013-04-24 19:37:00,
2013-04-24 13:42:00,42.3,9.0,30.31,NW,320,4.0,24.0,25,0.00,,,0.00,meteohub,2013-04-24 19:42:00,
2013-04-24 13:47:00,42.6,7.3,30.31,NNW,338,11.0,24.0,23,0.00,,,0.00,meteohub,2013-04-24 19:47:00,
2013-04-24 13:52:00,43.0,9.5,30.30,North,352,6.0,24.0,25,0.00,,,0.00,meteohub,2013-04-24 19:52:00,
2013-04-24 13:57:00,42.8,8.4,30.30,NNW,345,12.0,21.0,24,0.00,,,0.00,meteohub,2013-04-24 19:57:00,
2013-04-24 14:02:00,43.2,8.8,30.30,WSW,256,9.0,21.0,24,0.00,,,0.00,meteohub,2013-04-24 20:02:00,
2013-04-24 14:07:00,43.3,9.0,30.30,North,349,8.0,21.0,24,0.00,,,0.00,meteohub,2013-04-24 20:07:00,
2013-04-24 14:12:00,43.0,9.5,30.30,NNW,329,14.0,19.0,25,0.00,,,0.00,meteohub,2013-04-24 20:12:00,
2013-04-24 14:17:00,42.4,8.2,30.30,NW,305,5.0,19.0,24,0.00,,,0.00,meteohub,2013-04-24 20:17:00,
2013-04-24 14:22:00,43.2,8.8,30.30,NW,307,10.0,19.0,24,0.00,,,0.00,meteohub,2013-04-24 20:22:00,
2013-04-24 14:27:00,43.5,8.2,30.30,WNW,301,4.0,16.0,23,0.00,,,0.00,meteohub,2013-04-24 20:27:00,
2013-04-24 14:32:00,44.1,10.4,30.29,NNW,333,17.0,17.0,25,0.00,,,0.00,meteohub,2013-04-24 20:32:00,
2013-04-24 14:37:00,43.5,7.2,30.29,NNW,329,6.0,25.0,22,0.00,,,0.00,meteohub,2013-04-24 20:37:00,
2013-04-24 14:42:00,43.0,5.7,30.29,NNW,329,9.0,25.0,21,0.00,,,0.00,meteohub,2013-04-24 20:42:00,
2013-04-24 14:47:00,43.3,9.0,30.29,NW,307,4.0,25.0,24,0.00,,,0.00,meteohub,2013-04-24 20:47:00,
2013-04-24 14:52:00,43.9,7.5,30.29,WSW,256,5.0,18.0,22,0.00,,,0.00,meteohub,2013-04-24 20:52:00,
2013-04-24 14:57:00,44.2,6.8,30.29,NW,316,7.0,15.0,21,0.00,,,0.00,meteohub,2013-04-24 20:57:00,
2013-04-24 15:02:00,44.4,7.0,30.29,NNW,327,4.0,14.0,21,0.00,,,0.00,meteohub,2013-04-24 21:02:00,
2013-04-24 15:07:00,45.1,7.5,30.28,NNW,337,7.0,14.0,21,0.00,,,0.00,meteohub,2013-04-24 21:07:00,
2013-04-24 15:12:00,44.8,6.1,30.28,North,358,6.0,14.0,20,0.00,,,0.00,meteohub,2013-04-24 21:12:00,
2013-04-24 15:17:00,45.3,7.7,30.28,WSW,255,1.0,14.0,21,0.00,,,0.00,meteohub,2013-04-24 21:17:00,
2013-04-24 15:22:00,45.7,4.6,30.28,NNW,327,20.0,20.0,18,0.00,,,0.00,meteohub,2013-04-24 21:22:00,
2013-04-24 15:27:00,45.1,8.6,30.28,NNW,328,11.0,23.0,22,0.00,,,0.00,meteohub,2013-04-24 21:27:00,
2013-04-24 15:32:00,45.3,6.6,30.27,West,267,10.0,23.0,20,0.00,,,0.00,meteohub,2013-04-24 21:32:00,
2013-04-24 15:37:00,45.0,6.3,30.27,WNW,284,4.0,23.0,20,0.00,,,0.00,meteohub,2013-04-24 21:37:00,
2013-04-24 15:42:00,44.8,5.0,30.27,NNW,333,13.0,18.0,19,0.00,,,0.00,meteohub,2013-04-24 21:42:00,
2013-04-24 15:47:00,44.4,5.9,30.27,WNW,288,4.0,22.0,20,0.00,,,0.00,meteohub,2013-04-24 21:47:00,
2013-04-24 15:52:00,44.8,5.0,30.27,NE,41,7.0,22.0,19,0.00,,,0.00,meteohub,2013-04-24 21:52:00,
2013-04-24 15:57:00,45.1,5.4,30.27,WNW,294,9.0,22.0,19,0.00,,,0.00,meteohub,2013-04-24 21:57:00,
2013-04-24 16:02:00,45.3,4.3,30.26,NW,312,6.0,19.0,18,0.00,,,0.00,meteohub,2013-04-24 22:02:00,
2013-04-24 16:07:00,45.1,4.1,30.26,NW,319,6.0,17.0,18,0.00,,,0.00,meteohub,2013-04-24 22:07:00,
2013-04-24 16:12:00,45.5,3.2,30.26,WSW,252,5.0,18.0,17,0.00,,,0.00,meteohub,2013-04-24 22:12:00,
2013-04-24 16:17:00,45.5,4.5,30.25,WNW,293,6.0,18.0,18,0.00,,,0.00,meteohub,2013-04-24 22:17:00,
2013-04-24 16:22:00,45.5,5.5,30.25,NNW,329,7.0,16.0,19,0.00,,,0.00,meteohub,2013-04-24 22:22:00,
2013-04-24 16:27:00,45.3,4.3,30.25,West,267,9.0,20.0,18,0.00,,,0.00,meteohub,2013-04-24 22:27:00,
2013-04-24 16:32:00,45.1,5.4,30.25,NW,326,4.0,20.0,19,0.00,,,0.00,meteohub,2013-04-24 22:32:00,
2013-04-24 16:37:00,45.1,4.1,30.25,West,281,5.0,20.0,18,0.00,,,0.00,meteohub,2013-04-24 22:37:00,
2013-04-24 16:42:00,45.5,4.5,30.25,WNW,289,8.0,19.0,18,0.00,,,0.00,meteohub,2013-04-24 22:42:00,
2013-04-24 16:47:00,45.7,5.7,30.25,WSW,252,0.0,11.0,19,0.00,,,0.00,meteohub,2013-04-24 22:47:00,
2013-04-24 16:52:00,46.0,4.8,30.25,NNW,345,5.0,11.0,18,0.00,,,0.00,meteohub,2013-04-24 22:52:00,
2013-04-24 16:57:00,46.0,6.1,30.25,SW,217,3.0,13.0,19,0.00,,,0.00,meteohub,2013-04-24 22:57:00,
2013-04-24 17:02:00,45.9,4.6,30.25,NNW,342,3.0,13.0,18,0.00,,,0.00,meteohub,2013-04-24 23:02:00,
2013-04-24 17:07:00,46.0,4.8,30.25,NNW,342,9.0,13.0,18,0.00,,,0.00,meteohub,2013-04-24 23:07:00,
2013-04-24 17:12:00,45.3,4.3,30.25,NNW,327,5.0,14.0,18,0.00,,,0.00,meteohub,2013-04-24 23:12:00,
2013-04-24 17:17:00,45.0,2.7,30.25,NW,312,10.0,14.0,17,0.00,,,0.00,meteohub,2013-04-24 23:17:00,
2013-04-24 17:22:00,44.8,3.9,30.25,NW,326,8.0,14.0,18,0.00,,,0.00,meteohub,2013-04-24 23:22:00,
2013-04-24 17:27:00,44.4,3.6,30.25,NW,320,10.0,16.0,18,0.00,,,0.00,meteohub,2013-04-24 23:27:00,
2013-04-24 17:32:00,44.2,3.4,30.26,WNW,293,5.0,16.0,18,0.00,,,0.00,meteohub,2013-04-24 23:32:00,
2013-04-24 17:37:00,44.4,5.9,30.25,NNW,338,6.0,16.0,20,0.00,,,0.00,meteohub,2013-04-24 23:37:00,
2013-04-24 17:42:00,44.4,4.6,30.25,NW,304,4.0,13.0,19,0.00,,,0.00,meteohub,2013-04-24 23:42:00,
2013-04-24 17:47:00,44.4,4.6,30.26,NNW,337,5.0,11.0,19,0.00,,,0.00,meteohub,2013-04-24 23:47:00,
2013-04-24 17:52:00,44.2,5.7,30.26,NNW,336,4.0,11.0,20,0.00,,,0.00,meteohub,2013-04-24 23:52:00,
2013-04-24 17:57:00,44.2,4.6,30.26,WSW,249,7.0,11.0,19,0.00,,,0.00,meteohub,2013-04-24 23:57:00,
2013-04-24 18:02:00,44.2,4.6,30.27,WNW,285,2.0,11.0,19,0.00,,,0.00,meteohub,2013-04-25 00:02:00,
2013-04-24 18:07:00,44.4,5.9,30.27,NNW,340,5.0,11.0,20,0.00,,,0.00,meteohub,2013-04-25 00:07:00,
2013-04-24 18:12:00,44.2,4.6,30.27,NNW,342,6.0,10.0,19,0.00,,,0.00,meteohub,2013-04-25 00:12:00,
2013-04-24 18:17:00,44.1,3.2,30.27,NNW,333,7.0,10.0,18,0.00,,,0.00,meteohub,2013-04-25 00:17:00,
2013-04-24 18:22:00,43.7,3.0,30.27,NW,324,3.0,10.0,18,0.00,,,0.00,meteohub,2013-04-25 00:22:00,
2013-04-24 18:27:00,43.9,5.4,30.27,WSW,258,1.0,10.0,20,0.00,,,0.00,meteohub,2013-04-25 00:27:00,
2013-04-24 18:32:00,44.1,6.6,30.27,West,276,3.0,9.0,21,0.00,,,0.00,meteohub,2013-04-25 00:32:00,
2013-04-24 18:37:00,43.9,4.3,30.27,WSW,258,2.0,8.0,19,0.00,,,0.00,meteohub,2013-04-25 00:37:00,
2013-04-24 18:42:00,44.2,5.7,30.27,West,278,2.0,4.0,20,0.00,,,0.00,meteohub,2013-04-25 00:42:00,
2013-04-24 18:47:00,45.1,4.1,30.27,WNW,287,1.0,4.0,18,0.00,,,0.00,meteohub,2013-04-25 00:47:00,
2013-04-24 18:52:00,45.5,5.5,30.27,WNW,294,0.0,4.0,19,0.00,,,0.00,meteohub,2013-04-25 00:52:00,
2013-04-24 18:57:00,46.2,6.3,30.27,NW,321,3.0,4.0,19,0.00,,,0.00,meteohub,2013-04-25 00:57:00,
2013-04-24 19:02:00,45.3,4.3,30.27,NNW,337,6.0,10.0,18,0.00,,,0.00,meteohub,2013-04-25 01:02:00,
2013-04-24 19:07:00,45.0,5.2,30.27,NW,305,3.0,12.0,19,0.00,,,0.00,meteohub,2013-04-25 01:07:00,
2013-04-24 19:12:00,44.6,4.8,30.27,NW,324,4.0,12.0,19,0.00,,,0.00,meteohub,2013-04-25 01:12:00,
2013-04-24 19:17:00,44.1,4.5,30.28,NW,311,2.0,12.0,19,0.00,,,0.00,meteohub,2013-04-25 01:17:00,
2013-04-24 19:22:00,43.0,5.7,30.28,WNW,291,1.0,7.0,21,0.00,,,0.00,meteohub,2013-04-25 01:22:00,
2013-04-24 19:27:00,42.3,6.1,30.28,West,281,1.0,5.0,22,0.00,,,0.00,meteohub,2013-04-25 01:27:00,
2013-04-24 19:32:00,41.4,6.3,30.28,WNW,290,0.0,5.0,23,0.00,,,0.00,meteohub,2013-04-25 01:32:00,
2013-04-24 19:37:00,40.6,6.6,30.28,NW,324,0.0,4.0,24,0.00,,,0.00,meteohub,2013-04-25 01:37:00,
2013-04-24 19:42:00,40.1,7.2,30.29,NW,322,4.0,4.0,25,0.00,,,0.00,meteohub,2013-04-25 01:42:00,
2013-04-24 19:47:00,40.1,6.3,30.29,WNW,287,2.0,4.0,24,0.00,,,0.00,meteohub,2013-04-25 01:47:00,
2013-04-24 19:52:00,39.9,6.1,30.29,WNW,301,4.0,5.0,24,0.00,,,0.00,meteohub,2013-04-25 01:52:00,
2013-04-24 19:57:00,39.9,5.2,30.29,WSW,245,3.0,6.0,23,0.00,,,0.00,meteohub,2013-04-25 01:57:00,
2013-04-24 20:02:00,40.1,5.2,30.29,NW,326,2.0,6.0,23,0.00,,,0.00,meteohub,2013-04-25 02:02:00,
2013-04-24 20:07:00,39.6,5.7,30.29,NW,316,2.0,6.0,24,0.00,,,0.00,meteohub,2013-04-25 02:07:00,
2013-04-24 20:12:00,39.4,6.4,30.29,NW,318,2.0,5.0,25,0.00,,,0.00,meteohub,2013-04-25 02:12:00,
2013-04-24 20:17:00,38.5,6.6,30.29,WNW,291,2.0,5.0,26,0.00,,,0.00,meteohub,2013-04-25 02:17:00,
2013-04-24 20:22:00,37.9,7.0,30.29,WNW,297,3.0,5.0,27,0.00,,,0.00,meteohub,2013-04-25 02:22:00,
2013-04-24 20:27:00,37.8,6.8,30.30,WNW,296,2.0,6.0,27,0.00,,,0.00,meteohub,2013-04-25 02:27:00,
2013-04-24 20:32:00,37.2,7.9,30.30,NW,312,1.0,6.0,29,0.00,,,0.00,meteohub,2013-04-25 02:32:00,
2013-04-24 20:37:00,36.0,9.7,30.30,NW,304,2.0,6.0,33,0.00,,,0.00,meteohub,2013-04-25 02:37:00,
2013-04-24 20:42:00,35.2,9.7,30.30,WNW,293,4.0,6.0,34,0.00,,,0.00,meteohub,2013-04-25 02:42:00,
2013-04-24 20:47:00,35.6,7.9,30.31,West,259,3.0,6.0,31,0.00,,,0.00,meteohub,2013-04-25 02:47:00,
2013-04-24 20:52:00,36.1,7.7,30.31,WNW,291,3.0,6.0,30,0.00,,,0.00,meteohub,2013-04-25 02:52:00,
2013-04-24 20:57:00,36.1,7.0,30.31,NW,323,2.0,5.0,29,0.00,,,0.00,meteohub,2013-04-25 02:57:00,
2013-04-24 21:02:00,36.3,7.9,30.31,NW,325,4.0,5.0,30,0.00,,,0.00,meteohub,2013-04-25 03:02:00,
2013-04-24 21:07:00,36.7,7.3,30.31,NNW,338,3.0,5.0,29,0.00,,,0.00,meteohub,2013-04-25 03:07:00,
2013-04-24 21:12:00,36.7,7.3,30.32,NW,309,3.0,6.0,29,0.00,,,0.00,meteohub,2013-04-25 03:12:00,
2013-04-24 21:17:00,36.0,7.5,30.32,NW,321,2.0,6.0,30,0.00,,,0.00,meteohub,2013-04-25 03:17:00,
2013-04-24 21:22:00,36.3,7.2,30.32,NNW,336,3.0,6.0,29,0.00,,,0.00,meteohub,2013-04-25 03:22:00,
2013-04-24 21:27:00,36.7,7.3,30.32,NNW,333,3.0,8.0,29,0.00,,,0.00,meteohub,2013-04-25 03:27:00,
2013-04-24 21:32:00,36.3,7.9,30.33,NNW,338,3.0,8.0,30,0.00,,,0.00,meteohub,2013-04-25 03:32:00,
2013-04-24 21:37:00,36.0,7.5,30.33,NNW,342,5.0,8.0,30,0.00,,,0.00,meteohub,2013-04-25 03:37:00,
2013-04-24 21:42:00,36.0,7.5,30.33,NNW,335,4.0,6.0,30,0.00,,,0.00,meteohub,2013-04-25 03:42:00,
2013-04-24 21:47:00,35.1,8.2,30.32,NW,323,2.0,6.0,32,0.00,,,0.00,meteohub,2013-04-25 03:47:00,
2013-04-24 21:52:00,34.5,7.7,30.33,NW,315,1.0,6.0,32,0.00,,,0.00,meteohub,2013-04-25 03:52:00,
2013-04-24 21:57:00,34.3,8.2,30.33,South,179,6.0,6.0,33,0.00,,,0.00,meteohub,2013-04-25 03:57:00,
2013-04-24 22:01:00,33.1,9.7,30.33,SW,232,4.0,6.0,37,0.00,,,0.00,meteohub,2013-04-25 04:01:00,
2013-04-24 22:02:00,32.7,9.3,30.33,SW,218,4.0,6.0,37,0.00,,,0.00,meteohub,2013-04-25 04:02:00,
2013-04-24 22:04:00,32.5,9.7,30.33,South,191,1.0,6.0,38,0.00,,,0.00,meteohub,2013-04-25 04:04:00,
2013-04-24 22:05:00,32.4,9.5,30.33,SSW,203,2.0,6.0,38,0.00,,,0.00,meteohub,2013-04-25 04:05:00,
2013-04-24 22:08:00,32.0,9.9,30.33,SW,218,5.0,6.0,39,0.00,,,0.00,meteohub,2013-04-25 04:08:00,
2013-04-24 22:14:00,32.2,9.5,30.33,SSW,208,4.0,6.0,38,0.00,,,0.00,meteohub,2013-04-25 04:14:00,
2013-04-24 22:19:00,32.4,10.2,30.33,SW,227,4.0,8.0,39,0.00,,,0.00,meteohub,2013-04-25 04:19:00,
2013-04-24 22:25:00,32.2,10.0,30.33,SSW,203,2.0,8.0,39,0.00,,,0.00,meteohub,2013-04-25 04:25:00,
2013-04-24 22:30:00,32.5,11.5,30.33,South,171,8.0,8.0,41,0.00,,,0.00,meteohub,2013-04-25 04:30:00,
2013-04-24 22:36:00,32.7,14.7,30.33,SE,127,5.0,11.0,47,0.00,,,0.00,meteohub,2013-04-25 04:36:00,
2013-04-24 22:41:00,32.9,15.4,30.33,WSW,248,7.0,11.0,48,0.00,,,0.00,meteohub,2013-04-25 04:41:00,
2013-04-24 22:47:00,32.9,15.8,30.33,SW,217,5.0,12.0,49,0.00,,,0.00,meteohub,2013-04-25 04:47:00,
2013-04-24 22:52:00,33.1,16.5,30.33,SSW,210,7.0,13.0,50,0.00,,,0.00,meteohub,2013-04-25 04:52:00,
2013-04-24 22:57:00,32.9,16.7,30.32,WSW,241,4.0,13.0,51,0.00,,,0.00,meteohub,2013-04-25 04:57:00,
2013-04-24 23:02:00,32.9,17.2,30.33,WSW,241,4.0,13.0,52,0.00,,,0.00,meteohub,2013-04-25 05:02:00,
2013-04-24 23:07:00,32.7,17.4,30.32,SSW,210,9.0,14.0,53,0.00,,,0.00,meteohub,2013-04-25 05:07:00,
2013-04-24 23:12:00,32.7,17.4,30.32,SW,236,3.0,14.0,53,0.00,,,0.00,meteohub,2013-04-25 05:12:00,
2013-04-24 23:17:00,32.5,17.2,30.32,SW,234,10.0,14.0,53,0.00,,,0.00,meteohub,2013-04-25 05:17:00,
2013-04-24 23:22:00,32.5,17.8,30.32,SSW,196,3.0,14.0,54,0.00,,,0.00,meteohub,2013-04-25 05:22:00,
2013-04-24 23:27:00,32.4,17.6,30.31,SSW,200,3.0,14.0,54,0.00,,,0.00,meteohub,2013-04-25 05:27:00,
2013-04-24 23:32:00,32.2,17.8,30.31,SSE,148,6.0,14.0,55,0.00,,,0.00,meteohub,2013-04-25 05:32:00,
2013-04-24 23:37:00,32.2,17.8,30.31,SW,228,4.0,14.0,55,0.00,,,0.00,meteohub,2013-04-25 05:37:00,
2013-04-24 23:42:00,32.0,17.6,30.30,SSW,211,3.0,11.0,55,0.00,,,0.00,meteohub,2013-04-25 05:42:00,
2013-04-24 23:47:00,32.0,17.6,30.30,West,260,2.0,11.0,55,0.00,,,0.00,meteohub,2013-04-25 05:47:00,
2013-04-24 23:52:00,32.0,17.6,30.30,SSW,192,3.0,10.0,55,0.00,,,0.00,meteohub,2013-04-25 05:52:00,
2013-04-24 23:57:00,31.8,17.4,30.30,WSW,242,4.0,10.0,55,0.00,,,0.00,meteohub,2013-04-25 05:57:00,